,,Stat5,,Stat1,,Stat2,,Stat3,,Stat4,,Wind1,,Wind1,
time,status,PA1M_AVG,status,PR1M_SUM,status,RH1M_AVG,status,SR1M_AVG,status,TA1M_AVG,status,W1dAve1m,status,W1sAve1m,
2001-05-25, 00:00:00,VALID,916.827,VALID,0,VALID,95.7569,VALID,-0.101885,VALID,20.7175,VALID,124,VALID,0.219727,
2001-05-25, 00:01:00,VALID,916.818,VALID,0,VALID,95.5255,VALID,-0.101885,VALID,20.6761,VALID,114,VALID,0.283923,
2001-05-25, 00:02:00,VALID,916.828,VALID,0,VALID,95.2495,VALID,-0.0849042,VALID,20.633,VALID,111,VALID,0.0651727,
2001-05-25, 00:03:00,VALID,916.829,VALID,0,VALID,95.1593,VALID,-0.101885,VALID,20.6074,VALID,111,VALID,0.115451,
2001-05-25, 00:04:00,VALID,916.849,VALID,0,VALID,95.2864,VALID,-0.101885,VALID,20.6037,VALID,111,VALID,0.154772,
2001-05-25, 00:05:00,VALID,916.852,VALID,0,VALID,95.2241,VALID,-0.0849042,VALID,20.6206,VALID,110,VALID,0.237216,
2001-05-25, 00:06:00,VALID,916.837,VALID,0,VALID,95.2534,VALID,-0.0509425,VALID,20.6101,VALID,110,VALID,0.247997,
2001-05-25, 00:07:00,VALID,916.83,VALID,0,VALID,95.0041,VALID,-0.101885,VALID,20.6236,VALID,100,VALID,0.270536,
2001-05-25, 00:08:00,VALID,916.805,VALID,0,VALID,95.0817,VALID,-0.0849042,VALID,20.6174,VALID,87,VALID,0.396652,
2001-05-25, 00:09:00,VALID,916.788,VALID,0,VALID,95.2826,VALID,-0.0849042,VALID,20.6074,VALID,118,VALID,0.574013,
2001-05-25, 00:10:00,VALID,916.771,VALID,0,VALID,95.6119,VALID,0,VALID,20.59,VALID,140,VALID,0.590745,
2001-05-25, 00:11:00,VALID,916.756,VALID,0,VALID,95.7607,VALID,0,VALID,20.5773,VALID,161,VALID,0.501234,
2001-05-25, 00:12:00,VALID,916.737,VALID,0,VALID,96.1193,VALID,0.0509425,VALID,20.5733,VALID,158,VALID,0.478002,
2001-05-25, 00:13:00,VALID,916.737,VALID,0,VALID,96.2783,VALID,0.0339617,VALID,20.5867,VALID,142,VALID,0.455592,
2001-05-25, 00:14:00,VALID,916.722,VALID,0,VALID,96.469,VALID,0,VALID,20.6002,VALID,158,VALID,0.463341,
2001-05-25, 00:15:00,VALID,916.707,VALID,0,VALID,96.5072,VALID,0,VALID,20.5929,VALID,161,VALID,0.40111,
2001-05-25, 00:16:00,VALID,916.696,VALID,0,VALID,96.5199,VALID,0.0169808,VALID,20.5994,VALID,167,VALID,0.336719,
2001-05-25, 00:17:00,VALID,916.667,VALID,0,VALID,96.5542,VALID,0,VALID,20.5827,VALID,168,VALID,0.210732,
2001-05-25, 00:18:00,VALID,916.639,VALID,0,VALID,96.5491,VALID,0.0339617,VALID,20.5962,VALID,168,VALID,0.0756579,
2001-05-25, 00:19:00,VALID,916.602,VALID,0,VALID,96.5822,VALID,0.0339617,VALID,20.5795,VALID,168,VALID,0.00308388,
2001-05-25, 00:20:00,VALID,916.57,VALID,0,VALID,96.5924,VALID,0,VALID,20.6064,VALID,168,VALID,0,
2001-05-25, 00:21:00,VALID,916.565,VALID,0,VALID,96.4296,VALID,0.0169808,VALID,20.6064,VALID,168,VALID,0,
2001-05-25, 00:22:00,VALID,916.528,VALID,0,VALID,96.5122,VALID,0,VALID,20.6223,VALID,168,VALID,0,
2001-05-25, 00:23:00,VALID,916.532,VALID,0,VALID,96.3088,VALID,0,VALID,20.6484,VALID,168,VALID,0,
2001-05-25, 00:24:00,VALID,916.517,VALID,0,VALID,95.7505,VALID,0,VALID,20.6126,VALID,168,VALID,0,
2001-05-25, 00:25:00,VALID,916.52,VALID,0,VALID,95.3665,VALID,0.0339617,VALID,20.5964,VALID,168,VALID,0,
2001-05-25, 00:26:00,VALID,916.526,VALID,0,VALID,95.088,VALID,0.0169808,VALID,20.5639,VALID,168,VALID,0,
2001-05-25, 00:27:00,VALID,916.514,VALID,0,VALID,95.1885,VALID,0,VALID,20.548,VALID,167,VALID,0,
2001-05-25, 00:28:00,VALID,916.503,VALID,0,VALID,95.1415,VALID,0.0509425,VALID,20.5385,VALID,167,VALID,0,
2001-05-25, 00:29:00,VALID,916.508,VALID,0,VALID,95.1491,VALID,0,VALID,20.5323,VALID,167,VALID,0,
2001-05-25, 00:30:00,VALID,916.506,VALID,0,VALID,95.0308,VALID,0.0169808,VALID,20.5187,VALID,167,VALID,0,
2001-05-25, 00:31:00,VALID,916.496,VALID,0,VALID,94.7523,VALID,0,VALID,20.496,VALID,167,VALID,0,
2001-05-25, 00:32:00,VALID,916.493,VALID,0,VALID,94.5616,VALID,0,VALID,20.4677,VALID,167,VALID,0,
2001-05-25, 00:33:00,VALID,916.477,VALID,0,VALID,94.7231,VALID,0,VALID,20.4419,VALID,167,VALID,0,
2001-05-25, 00:34:00,VALID,916.467,VALID,0,VALID,95.1834,VALID,0,VALID,20.4449,VALID,167,VALID,0,
2001-05-25, 00:35:00,VALID,916.449,VALID,0,VALID,95.6819,VALID,0,VALID,20.471,VALID,167,VALID,0,
2001-05-25, 00:36:00,VALID,916.437,VALID,0,VALID,95.7785,VALID,0,VALID,20.4801,VALID,166,VALID,0,
2001-05-25, 00:37:00,VALID,916.413,VALID,0,VALID,95.0664,VALID,0.0169808,VALID,20.4384,VALID,166,VALID,0,
2001-05-25, 00:38:00,VALID,916.396,VALID,0,VALID,94.4472,VALID,0,VALID,20.3574,VALID,64,VALID,0.190705,
2001-05-25, 00:39:00,VALID,916.379,VALID,0,VALID,94.3848,VALID,0.0169808,VALID,20.3089,VALID,55,VALID,0.484169,
2001-05-25, 00:40:00,VALID,916.367,VALID,0,VALID,94.5273,VALID,0.0339617,VALID,20.2669,VALID,47,VALID,0.354102,
2001-05-25, 00:41:00,VALID,916.345,VALID,0,VALID,95.1898,VALID,0,VALID,20.2704,VALID,47,VALID,0.120888,
2001-05-25, 00:42:00,VALID,916.332,VALID,0,VALID,96.1638,VALID,0,VALID,20.3288,VALID,47,VALID,0.0499589,
2001-05-25, 00:43:00,VALID,916.322,VALID,0,VALID,96.1638,VALID,0,VALID,20.38,VALID,48,VALID,0.161595,
2001-05-25, 00:44:00,VALID,916.308,VALID,0,VALID,96.2363,VALID,0,VALID,20.3808,VALID,56,VALID,0.453125,
2001-05-25, 00:45:00,VALID,916.29,VALID,0,VALID,96.3914,VALID,-0.0169808,VALID,20.3773,VALID,59,VALID,0.529605,
2001-05-25, 00:46:00,VALID,916.304,VALID,0,VALID,96.3787,VALID,-0.0169808,VALID,20.3905,VALID,62,VALID,0.58774,
2001-05-25, 00:47:00,VALID,916.302,VALID,0,VALID,96.3991,VALID,-0.0169808,VALID,20.3974,VALID,71,VALID,0.758018,
2001-05-25, 00:48:00,VALID,916.311,VALID,0,VALID,96.2923,VALID,0,VALID,20.4098,VALID,69,VALID,0.765039,
2001-05-25, 00:49:00,VALID,916.318,VALID,0,VALID,95.6501,VALID,-0.0169808,VALID,20.3937,VALID,69,VALID,0.724918,
2001-05-25, 00:50:00,VALID,916.299,VALID,0,VALID,95.2241,VALID,-0.0169808,VALID,20.3549,VALID,68,VALID,0.771382,
2001-05-25, 00:51:00,VALID,916.291,VALID,0,VALID,95.9998,VALID,-0.0169808,VALID,20.3708,VALID,69,VALID,0.863692,
2001-05-25, 00:52:00,VALID,916.287,VALID,0,VALID,96.2605,VALID,-0.0339617,VALID,20.3974,VALID,69,VALID,0.846484,
2001-05-25, 00:53:00,VALID,916.267,VALID,0,VALID,95.9324,VALID,-0.0169808,VALID,20.3845,VALID,63,VALID,0.751028,
2001-05-25, 00:54:00,VALID,916.263,VALID,0,VALID,95.3627,VALID,-0.0169808,VALID,20.3299,VALID,53,VALID,0.883013,
2001-05-25, 00:55:00,VALID,916.245,VALID,0,VALID,95.4657,VALID,-0.101885,VALID,20.2851,VALID,51,VALID,0.798725,
2001-05-25, 00:56:00,VALID,916.238,VALID,0,VALID,96.0278,VALID,-0.101885,VALID,20.305,VALID,63,VALID,0.730273,
2001-05-25, 00:57:00,VALID,916.212,VALID,0,VALID,96.5186,VALID,-0.101885,VALID,20.3435,VALID,73,VALID,0.69963,
2001-05-25, 00:58:00,VALID,916.214,VALID,0,VALID,96.6254,VALID,-0.0849042,VALID,20.3503,VALID,84,VALID,0.585115,
2001-05-25, 00:59:00,VALID,916.185,VALID,0,VALID,96.5936,VALID,-0.101885,VALID,20.3535,VALID,84,VALID,0.523438,
2001-05-25, 01:00:00,VALID,916.186,VALID,0,VALID,96.5733,VALID,-0.101885,VALID,20.3304,VALID,82,VALID,0.485547,
2001-05-25, 01:01:00,VALID,916.191,VALID,0,VALID,96.4906,VALID,-0.101885,VALID,20.3177,VALID,72,VALID,0.457854,
2001-05-25, 01:02:00,VALID,916.196,VALID,0,VALID,95.8383,VALID,-0.118866,VALID,20.2633,VALID,58,VALID,0.419671,
2001-05-25, 01:03:00,VALID,916.219,VALID,0,VALID,94.8236,VALID,-0.118866,VALID,20.1398,VALID,54,VALID,0.410362,
2001-05-25, 01:04:00,VALID,916.233,VALID,0,VALID,94.7574,VALID,-0.101885,VALID,20.059,VALID,50,VALID,0.569336,
2001-05-25, 01:05:00,VALID,916.222,VALID,0,VALID,95.6908,VALID,-0.101885,VALID,20.0367,VALID,50,VALID,0.688939,
2001-05-25, 01:06:00,VALID,916.216,VALID,0,VALID,96.4105,VALID,-0.101885,VALID,20.0816,VALID,50,VALID,0.699219,
2001-05-25, 01:07:00,VALID,916.207,VALID,0,VALID,96.923,VALID,-0.101885,VALID,20.1236,VALID,50,VALID,0.626234,
2001-05-25, 01:08:00,VALID,916.195,VALID,0,VALID,97.2587,VALID,-0.0849042,VALID,20.1955,VALID,55,VALID,0.658789,
2001-05-25, 01:09:00,VALID,916.187,VALID,0,VALID,97.1023,VALID,-0.101885,VALID,20.2014,VALID,57,VALID,0.426809,
2001-05-25, 01:10:00,VALID,916.162,VALID,0,VALID,96.7717,VALID,0,VALID,20.1673,VALID,57,VALID,0.30008,
2001-05-25, 01:11:00,VALID,916.139,VALID,0,VALID,96.6826,VALID,0,VALID,20.1576,VALID,57,VALID,0.244243,
2001-05-25, 01:12:00,VALID,916.109,VALID,0,VALID,96.4118,VALID,0,VALID,20.1251,VALID,57,VALID,0.0529297,
2001-05-25, 01:13:00,VALID,916.079,VALID,0,VALID,96.3329,VALID,0,VALID,20.1258,VALID,57,VALID,0,
2001-05-25, 01:14:00,VALID,916.068,VALID,0,VALID,96.3266,VALID,0,VALID,20.1326,VALID,57,VALID,0,
2001-05-25, 01:15:00,VALID,916.05,VALID,0,VALID,96.4576,VALID,0,VALID,20.145,VALID,57,VALID,0,
2001-05-25, 01:16:00,VALID,916.036,VALID,0,VALID,96.7182,VALID,0,VALID,20.1676,VALID,57,VALID,0,
2001-05-25, 01:17:00,VALID,916.042,VALID,0,VALID,96.8581,VALID,0,VALID,20.1872,VALID,57,VALID,0,
2001-05-25, 01:18:00,VALID,916.049,VALID,0,VALID,96.8073,VALID,0,VALID,20.2039,VALID,57,VALID,0,
2001-05-25, 01:19:00,VALID,916.06,VALID,0,VALID,96.4448,VALID,0,VALID,20.1616,VALID,104,VALID,0.0189145,
2001-05-25, 01:20:00,VALID,916.076,VALID,0,VALID,96.4156,VALID,0,VALID,20.1258,VALID,140,VALID,0.402539,
2001-05-25, 01:21:00,VALID,916.084,VALID,0,VALID,96.6038,VALID,0.0339617,VALID,20.1196,VALID,139,VALID,0.511513,
2001-05-25, 01:22:00,VALID,916.081,VALID,0,VALID,96.6992,VALID,-0.0169808,VALID,20.1032,VALID,148,VALID,0.712582,
2001-05-25, 01:23:00,VALID,916.076,VALID,0,VALID,96.9103,VALID,0,VALID,20.0965,VALID,146,VALID,0.636719,
2001-05-25, 01:24:00,VALID,916.05,VALID,0,VALID,97.0692,VALID,0,VALID,20.1065,VALID,146,VALID,0.436719,
2001-05-25, 01:25:00,VALID,916.029,VALID,0,VALID,97.1112,VALID,0,VALID,20.0963,VALID,145,VALID,0.135074,
2001-05-25, 01:26:00,VALID,915.995,VALID,0,VALID,96.2732,VALID,0,VALID,20.0187,VALID,145,VALID,0.0380609,
2001-05-25, 01:27:00,VALID,915.971,VALID,0,VALID,95.0868,VALID,0.0169808,VALID,19.8804,VALID,69,VALID,0.382813,
2001-05-25, 01:28:00,VALID,915.953,VALID,0,VALID,95.2775,VALID,0,VALID,19.8125,VALID,37,VALID,0.301758,
2001-05-25, 01:29:00,VALID,915.936,VALID,0,VALID,95.9082,VALID,0.0169808,VALID,19.7991,VALID,31,VALID,0.267064,
2001-05-25, 01:30:00,VALID,915.925,VALID,0,VALID,97.087,VALID,0,VALID,19.893,VALID,347,VALID,0.373561,
2001-05-25, 01:31:00,VALID,915.927,VALID,0,VALID,97.5944,VALID,0,VALID,19.9733,VALID,323,VALID,0.206414,
2001-05-25, 01:32:00,VALID,915.918,VALID,0,VALID,97.7381,VALID,0.0169808,VALID,20.0451,VALID,293,VALID,0.176563,
2001-05-25, 01:33:00,VALID,915.926,VALID,0,VALID,97.6783,VALID,0,VALID,20.0769,VALID,256,VALID,0.315995,
2001-05-25, 01:34:00,VALID,915.937,VALID,0,VALID,97.8004,VALID,0,VALID,20.1256,VALID,252,VALID,0.331731,
2001-05-25, 01:35:00,VALID,915.92,VALID,0,VALID,97.8932,VALID,0,VALID,20.181,VALID,252,VALID,0.183799,
2001-05-25, 01:36:00,VALID,915.914,VALID,0,VALID,97.9046,VALID,0,VALID,20.217,VALID,252,VALID,0.0279297,
2001-05-25, 01:37:00,VALID,915.911,VALID,0,VALID,97.6516,VALID,0,VALID,20.174,VALID,252,VALID,0,
2001-05-25, 01:38:00,VALID,915.891,VALID,0,VALID,96.5809,VALID,0.0509425,VALID,20.0346,VALID,252,VALID,0.197985,
2001-05-25, 01:39:00,VALID,915.873,VALID,0,VALID,95.5865,VALID,0,VALID,19.8866,VALID,26,VALID,0.450041,
2001-05-25, 01:40:00,VALID,915.86,VALID,0,VALID,95.1669,VALID,0.0169808,VALID,19.7604,VALID,31,VALID,0.408789,
2001-05-25, 01:41:00,VALID,915.861,VALID,0,VALID,95.2673,VALID,0,VALID,19.6644,VALID,28,VALID,0.422081,
2001-05-25, 01:42:00,VALID,915.839,VALID,0,VALID,96.057,VALID,0,VALID,19.6446,VALID,23,VALID,0.190304,
2001-05-25, 01:43:00,VALID,915.818,VALID,0,VALID,96.6801,VALID,0.0169808,VALID,19.6637,VALID,23,VALID,0.00246711,
2001-05-25, 01:44:00,VALID,915.817,VALID,0,VALID,96.8886,VALID,0.0169808,VALID,19.6764,VALID,23,VALID,0,
2001-05-25, 01:45:00,VALID,915.814,VALID,0,VALID,96.7958,VALID,0.0169808,VALID,19.6734,VALID,23,VALID,0,
2001-05-25, 01:46:00,VALID,915.836,VALID,0,VALID,96.9153,VALID,0.0339617,VALID,19.6838,VALID,23,VALID,0,
2001-05-25, 01:47:00,VALID,915.824,VALID,0,VALID,97.4787,VALID,0,VALID,19.7705,VALID,23,VALID,0,
2001-05-25, 01:48:00,VALID,915.838,VALID,0,VALID,97.3235,VALID,0,VALID,19.7931,VALID,23,VALID,0.00761719,
2001-05-25, 01:49:00,VALID,915.823,VALID,0,VALID,96.8352,VALID,0,VALID,19.7159,VALID,23,VALID,0.188528,
2001-05-25, 01:50:00,VALID,915.813,VALID,0,VALID,96.2579,VALID,0,VALID,19.651,VALID,34,VALID,0.527845,
2001-05-25, 01:51:00,VALID,915.77,VALID,0,VALID,96.2859,VALID,0.0169808,VALID,19.5927,VALID,41,VALID,0.715872,
2001-05-25, 01:52:00,VALID,915.737,VALID,0,VALID,96.9001,VALID,0.0339617,VALID,19.6222,VALID,35,VALID,0.825391,
2001-05-25, 01:53:00,VALID,915.71,VALID,0,VALID,97.3121,VALID,0.0169808,VALID,19.6543,VALID,30,VALID,0.92722,
2001-05-25, 01:54:00,VALID,915.697,VALID,0,VALID,97.4787,VALID,0,VALID,19.6801,VALID,43,VALID,0.825452,
2001-05-25, 01:55:00,VALID,915.682,VALID,0,VALID,97.5766,VALID,-0.101885,VALID,19.7176,VALID,41,VALID,0.500617,
2001-05-25, 01:56:00,VALID,915.681,VALID,0,VALID,97.6923,VALID,-0.101885,VALID,19.776,VALID,41,VALID,0.366992,
2001-05-25, 01:57:00,VALID,915.677,VALID,0,VALID,97.7126,VALID,-0.118866,VALID,19.8011,VALID,41,VALID,0.319079,
2001-05-25, 01:58:00,VALID,915.676,VALID,0,VALID,97.7826,VALID,-0.101885,VALID,19.8438,VALID,47,VALID,0.319311,
2001-05-25, 01:59:00,VALID,915.665,VALID,0,VALID,97.6007,VALID,-0.101885,VALID,19.8657,VALID,62,VALID,0.367393,
2001-05-25, 02:00:00,VALID,915.651,VALID,0,VALID,97.0489,VALID,-0.101885,VALID,19.8175,VALID,92,VALID,0.511328,
2001-05-25, 02:01:00,VALID,915.628,VALID,0,VALID,96.9319,VALID,-0.101885,VALID,19.7889,VALID,127,VALID,0.800164,
2001-05-25, 02:02:00,VALID,915.614,VALID,0,VALID,96.923,VALID,-0.101885,VALID,19.7601,VALID,136,VALID,0.990132,
2001-05-25, 02:03:00,VALID,915.581,VALID,0,VALID,96.7526,VALID,-0.101885,VALID,19.7181,VALID,138,VALID,0.702303,
2001-05-25, 02:04:00,VALID,915.549,VALID,0,VALID,97.143,VALID,-0.0679233,VALID,19.6853,VALID,119,VALID,0.677734,
2001-05-25, 02:05:00,VALID,915.528,VALID,0,VALID,97.3401,VALID,-0.0849042,VALID,19.662,VALID,121,VALID,0.389186,
2001-05-25, 02:06:00,VALID,915.525,VALID,0,VALID,97.3884,VALID,-0.101885,VALID,19.6334,VALID,105,VALID,0.408454,
2001-05-25, 02:07:00,VALID,915.513,VALID,0,VALID,97.7203,VALID,-0.0849042,VALID,19.6239,VALID,104,VALID,0.514803,
2001-05-25, 02:08:00,VALID,915.503,VALID,0,VALID,98.0928,VALID,-0.101885,VALID,19.6463,VALID,103,VALID,0.760547,
2001-05-25, 02:09:00,VALID,915.483,VALID,0,VALID,98.2798,VALID,-0.101885,VALID,19.6858,VALID,92,VALID,0.625,
2001-05-25, 02:10:00,VALID,915.463,VALID,0,VALID,98.2022,VALID,0,VALID,19.6418,VALID,33,VALID,0.759046,
2001-05-25, 02:11:00,VALID,915.459,VALID,0,VALID,97.9263,VALID,0,VALID,19.5387,VALID,60,VALID,0.509663,
2001-05-25, 02:12:00,VALID,915.44,VALID,0,VALID,97.8716,VALID,0,VALID,19.4548,VALID,48,VALID,0.444336,
2001-05-25, 02:13:00,VALID,915.427,VALID,0,VALID,97.663,VALID,0.0169808,VALID,19.3579,VALID,35,VALID,0.284745,
2001-05-25, 02:14:00,VALID,915.426,VALID,0,VALID,97.7114,VALID,0.0169808,VALID,19.3102,VALID,35,VALID,0.0220353,
2001-05-25, 02:15:00,VALID,915.415,VALID,0,VALID,97.8067,VALID,-0.0169808,VALID,19.2709,VALID,35,VALID,0.000205592,
2001-05-25, 02:16:00,VALID,915.386,VALID,0,VALID,97.9364,VALID,0.0169808,VALID,19.2642,VALID,72,VALID,0.25957,
2001-05-25, 02:17:00,VALID,915.346,VALID,0,VALID,98.0051,VALID,0.0339617,VALID,19.2607,VALID,142,VALID,0.622944,
2001-05-25, 02:18:00,VALID,915.297,VALID,0,VALID,97.9186,VALID,0.0169808,VALID,19.2289,VALID,146,VALID,0.798109,
2001-05-25, 02:19:00,VALID,915.259,VALID,0,VALID,98.1552,VALID,0.0169808,VALID,19.2151,VALID,149,VALID,0.964844,
2001-05-25, 02:20:00,VALID,915.24,VALID,0,VALID,98.323,VALID,-0.0169808,VALID,19.2481,VALID,145,VALID,0.976953,
2001-05-25, 02:21:00,VALID,915.225,VALID,0,VALID,98.3383,VALID,0,VALID,19.2545,VALID,144,VALID,0.889803,
2001-05-25, 02:22:00,VALID,915.215,VALID,0,VALID,98.323,VALID,0,VALID,19.2354,VALID,135,VALID,0.490986,
2001-05-25, 02:23:00,VALID,915.213,VALID,0,VALID,98.3497,VALID,0.0169808,VALID,19.2225,VALID,120,VALID,0.44264,
2001-05-25, 02:24:00,VALID,915.208,VALID,0,VALID,98.571,VALID,0.0169808,VALID,19.2391,VALID,116,VALID,0.667188,
2001-05-25, 02:25:00,VALID,915.196,VALID,0,VALID,98.6727,VALID,0.0339617,VALID,19.2838,VALID,114,VALID,0.614309,
2001-05-25, 02:26:00,VALID,915.19,VALID,0,VALID,98.6371,VALID,0.0169808,VALID,19.3035,VALID,134,VALID,0.575658,
2001-05-25, 02:27:00,VALID,915.188,VALID,0,VALID,98.6485,VALID,0,VALID,19.3069,VALID,150,VALID,0.731908,
2001-05-25, 02:28:00,VALID,915.183,VALID,0,VALID,98.6435,VALID,0,VALID,19.2938,VALID,148,VALID,0.720312,
2001-05-25, 02:29:00,VALID,915.173,VALID,0,VALID,98.5379,VALID,0,VALID,19.2739,VALID,142,VALID,0.46875,
2001-05-25, 02:30:00,VALID,915.171,VALID,0,VALID,98.4603,VALID,0,VALID,19.2197,VALID,127,VALID,0.651242,
2001-05-25, 02:31:00,VALID,915.158,VALID,0,VALID,98.5824,VALID,0,VALID,19.2163,VALID,128,VALID,0.782895,
2001-05-25, 02:32:00,VALID,915.154,VALID,0,VALID,98.7108,VALID,0,VALID,19.258,VALID,128,VALID,0.700977,
2001-05-25, 02:33:00,VALID,915.145,VALID,0,VALID,98.8406,VALID,0,VALID,19.3228,VALID,139,VALID,1.23006,
2001-05-25, 02:34:00,VALID,915.163,VALID,0,VALID,98.9486,VALID,0,VALID,19.4192,VALID,133,VALID,1.03762,
2001-05-25, 02:35:00,VALID,915.16,VALID,0,VALID,98.9601,VALID,0.0169808,VALID,19.4808,VALID,132,VALID,1.22348,
2001-05-25, 02:36:00,VALID,915.168,VALID,0,VALID,98.9207,VALID,0.0169808,VALID,19.4975,VALID,120,VALID,0.948633,
2001-05-25, 02:37:00,VALID,915.176,VALID,0,VALID,98.8634,VALID,0.0169808,VALID,19.4841,VALID,114,VALID,1.39186,
2001-05-25, 02:38:00,VALID,915.155,VALID,0,VALID,98.8533,VALID,0,VALID,19.4545,VALID,120,VALID,1.45313,
2001-05-25, 02:39:00,VALID,915.153,VALID,0,VALID,98.8647,VALID,0.0169808,VALID,19.4453,VALID,115,VALID,1.3565,
2001-05-25, 02:40:00,VALID,915.133,VALID,0,VALID,98.9029,VALID,0,VALID,19.4389,VALID,115,VALID,1.41387,
2001-05-25, 02:41:00,VALID,915.108,VALID,0,VALID,98.927,VALID,0.0169808,VALID,19.4485,VALID,117,VALID,1.50966,
2001-05-25, 02:42:00,VALID,915.099,VALID,0,VALID,98.9575,VALID,0,VALID,19.4523,VALID,113,VALID,1.11678,
2001-05-25, 02:43:00,VALID,915.075,VALID,0,VALID,98.9639,VALID,0.0169808,VALID,19.4423,VALID,104,VALID,1.07833,
2001-05-25, 02:44:00,VALID,915.072,VALID,0,VALID,98.9982,VALID,0,VALID,19.449,VALID,109,VALID,1.14766,
2001-05-25, 02:45:00,VALID,915.059,VALID,0,VALID,98.9995,VALID,0.0169808,VALID,19.4423,VALID,112,VALID,1.09745,
2001-05-25, 02:46:00,VALID,915.049,VALID,0,VALID,99.0033,VALID,0,VALID,19.4255,VALID,108,VALID,1.03666,
2001-05-25, 02:47:00,VALID,915.036,VALID,0,VALID,99.0084,VALID,0,VALID,19.4128,VALID,109,VALID,0.957854,
2001-05-25, 02:48:00,VALID,915.024,VALID,0,VALID,99.016,VALID,0.0169808,VALID,19.3969,VALID,127,VALID,0.928125,
2001-05-25, 02:49:00,VALID,915.027,VALID,0,VALID,99.0351,VALID,0.0169808,VALID,19.4001,VALID,138,VALID,0.752673,
2001-05-25, 02:50:00,VALID,915.033,VALID,0,VALID,99.0796,VALID,0,VALID,19.4165,VALID,158,VALID,0.687911,
2001-05-25, 02:51:00,VALID,915.06,VALID,0,VALID,99.0974,VALID,0,VALID,19.4326,VALID,158,VALID,0.895354,
2001-05-25, 02:52:00,VALID,915.078,VALID,0,VALID,99.1089,VALID,0,VALID,19.452,VALID,152,VALID,0.907227,
2001-05-25, 02:53:00,VALID,915.093,VALID,0,VALID,99.0783,VALID,0,VALID,19.4289,VALID,145,VALID,0.741602,
2001-05-25, 02:54:00,VALID,915.088,VALID,0,VALID,99.0516,VALID,0,VALID,19.3969,VALID,145,VALID,0.804688,
2001-05-25, 02:55:00,VALID,915.079,VALID,0,VALID,99.0593,VALID,0,VALID,19.3676,VALID,151,VALID,0.918997,
2001-05-25, 02:56:00,VALID,915.081,VALID,0,VALID,99.0644,VALID,-0.0169808,VALID,19.3452,VALID,148,VALID,0.933789,
2001-05-25, 02:57:00,VALID,915.092,VALID,0,VALID,99.0885,VALID,0,VALID,19.3484,VALID,148,VALID,1.00863,
2001-05-25, 02:58:00,VALID,915.104,VALID,0,VALID,99.0961,VALID,-0.0169808,VALID,19.3422,VALID,148,VALID,0.796875,
2001-05-25, 02:59:00,VALID,915.081,VALID,0,VALID,99.1063,VALID,0.0169808,VALID,19.3291,VALID,139,VALID,0.698602,
2001-05-25, 03:00:00,VALID,915.057,VALID,0,VALID,99.0936,VALID,0,VALID,19.3027,VALID,138,VALID,0.646094,
2001-05-25, 03:01:00,VALID,915.004,VALID,0,VALID,99.0949,VALID,0.0169808,VALID,19.2938,VALID,128,VALID,0.700247,
2001-05-25, 03:02:00,VALID,914.976,VALID,0,VALID,99.1114,VALID,0,VALID,19.2836,VALID,116,VALID,0.670673,
2001-05-25, 03:03:00,VALID,914.963,VALID,0,VALID,99.1648,VALID,-0.0169808,VALID,19.3136,VALID,117,VALID,0.738692,
2001-05-25, 03:04:00,VALID,914.961,VALID,0,VALID,99.1712,VALID,0,VALID,19.3295,VALID,130,VALID,0.62793,
2001-05-25, 03:05:00,VALID,914.975,VALID,0,VALID,99.1712,VALID,0,VALID,19.3261,VALID,125,VALID,0.566201,
2001-05-25, 03:06:00,VALID,914.982,VALID,0,VALID,99.1635,VALID,0,VALID,19.3194,VALID,134,VALID,0.409745,
2001-05-25, 03:07:00,VALID,915.003,VALID,0,VALID,99.1241,VALID,0.0339617,VALID,19.3007,VALID,113,VALID,0.234992,
2001-05-25, 03:08:00,VALID,915.009,VALID,0,VALID,99.1076,VALID,0,VALID,19.2553,VALID,98,VALID,0.291016,
2001-05-25, 03:09:00,VALID,915.018,VALID,0,VALID,99.1,VALID,0,VALID,19.1969,VALID,61,VALID,0.578947,
2001-05-25, 03:10:00,VALID,914.995,VALID,0,VALID,99.1178,VALID,0.0169808,VALID,19.1835,VALID,58,VALID,0.733774,
2001-05-25, 03:11:00,VALID,914.967,VALID,0,VALID,99.1368,VALID,0.0169808,VALID,19.1969,VALID,63,VALID,0.726768,
2001-05-25, 03:12:00,VALID,914.938,VALID,0,VALID,99.1674,VALID,0.0339617,VALID,19.1964,VALID,73,VALID,1.0043,
2001-05-25, 03:13:00,VALID,914.907,VALID,0,VALID,99.1877,VALID,0.0339617,VALID,19.2319,VALID,59,VALID,1.00041,
2001-05-25, 03:14:00,VALID,914.89,VALID,0,VALID,99.1813,VALID,0.0169808,VALID,19.2294,VALID,63,VALID,0.89741,
2001-05-25, 03:15:00,VALID,914.898,VALID,0,VALID,99.1674,VALID,0,VALID,19.2096,VALID,67,VALID,0.66324,
2001-05-25, 03:16:00,VALID,914.933,VALID,0,VALID,99.1432,VALID,0.0509425,VALID,19.1837,VALID,72,VALID,0.482227,
2001-05-25, 03:17:00,VALID,914.948,VALID,0,VALID,99.1457,VALID,0.0509425,VALID,19.1711,VALID,101,VALID,0.583882,
2001-05-25, 03:18:00,VALID,914.968,VALID,0,VALID,99.1292,VALID,0,VALID,19.1388,VALID,128,VALID,0.803285,
2001-05-25, 03:19:00,VALID,914.981,VALID,0,VALID,99.1139,VALID,0.0169808,VALID,19.1191,VALID,131,VALID,0.864104,
2001-05-25, 03:20:00,VALID,914.962,VALID,0,VALID,99.1419,VALID,0.0509425,VALID,19.0998,VALID,117,VALID,0.867773,
2001-05-25, 03:21:00,VALID,914.923,VALID,0,VALID,99.1724,VALID,0,VALID,19.1162,VALID,106,VALID,0.893092,
2001-05-25, 03:22:00,VALID,914.885,VALID,0,VALID,99.189,VALID,0.0169808,VALID,19.1201,VALID,104,VALID,0.836349,
2001-05-25, 03:23:00,VALID,914.848,VALID,0,VALID,99.2106,VALID,0.0339617,VALID,19.1124,VALID,93,VALID,0.776727,
2001-05-25, 03:24:00,VALID,914.791,VALID,0,VALID,99.2424,VALID,0.0169808,VALID,19.1383,VALID,106,VALID,1.0127,
2001-05-25, 03:25:00,VALID,914.757,VALID,0,VALID,99.2246,VALID,-0.101885,VALID,19.1663,VALID,123,VALID,0.634252,
2001-05-25, 03:26:00,VALID,914.737,VALID,0,VALID,99.2271,VALID,-0.101885,VALID,19.1564,VALID,126,VALID,0.719752,
2001-05-25, 03:27:00,VALID,914.743,VALID,0,VALID,99.2297,VALID,-0.101885,VALID,19.1596,VALID,132,VALID,0.83676,
2001-05-25, 03:28:00,VALID,914.754,VALID,0,VALID,99.2538,VALID,-0.101885,VALID,19.1757,VALID,127,VALID,0.873633,
2001-05-25, 03:29:00,VALID,914.734,VALID,0,VALID,99.2615,VALID,-0.101885,VALID,19.1983,VALID,137,VALID,0.97389,
2001-05-25, 03:30:00,VALID,914.727,VALID,0,VALID,99.2767,VALID,-0.0679233,VALID,19.2207,VALID,139,VALID,1.03413,
2001-05-25, 03:31:00,VALID,914.696,VALID,0,VALID,99.264,VALID,-0.101885,VALID,19.2272,VALID,135,VALID,0.811678,
2001-05-25, 03:32:00,VALID,914.678,VALID,0,VALID,99.2818,VALID,-0.101885,VALID,19.2604,VALID,141,VALID,0.658984,
2001-05-25, 03:33:00,VALID,914.652,VALID,0,VALID,99.2932,VALID,-0.0509425,VALID,19.2694,VALID,147,VALID,0.766036,
2001-05-25, 03:34:00,VALID,914.621,VALID,0,VALID,99.264,VALID,-0.0679233,VALID,19.2759,VALID,148,VALID,0.61859,
2001-05-25, 03:35:00,VALID,914.624,VALID,0,VALID,99.2665,VALID,-0.0849042,VALID,19.2629,VALID,124,VALID,0.480263,
2001-05-25, 03:36:00,VALID,914.625,VALID,0,VALID,99.2564,VALID,-0.101885,VALID,19.2369,VALID,103,VALID,0.55957,
2001-05-25, 03:37:00,VALID,914.607,VALID,0,VALID,99.2411,VALID,-0.101885,VALID,19.2341,VALID,85,VALID,0.545847,